Wind_Speed
12 12 12 12 13 13 13 14 14 14 15 15 15 16 16 17 17 17 17 18 18 19 20 21 21 22 23 23 23 23 23 23 23 23 22 22 22 22 21 21 21 21 21
14 14 14 14 15 15 15 16 16 16 16 16 17 17 18 18 19 19 19 20 20 20 21 22 22 23 23 24 24 24 23 22 22 22 23 23 22 23 23 22 22 23 22
16 16 16 17 17 17 18 17 17 17 18 18 19 19 20 21 21 21 21 22 22 22 22 23 23 24 24 24 24 24 23 22 22 22 23 24 23 23 24 24 23 23 23
18 18 19 19 19 19 19 19 20 20 20 21 21 22 22 22 22 22 23 23 23 23 24 24 24 24 25 25 25 24 23 23 23 23 23 24 24 24 25 25 25 25 25
20 21 21 21 21 21 21 21 22 22 23 23 23 23 24 24 24 24 24 24 24 25 25 25 25 25 26 25 25 24 23 23 23 23 24 24 24 25 25 26 26 27 26
23 24 24 24 23 24 23 24 24 24 24 25 25 25 25 24 25 25 26 26 25 25 25 25 25 25 26 25 25 24 23 24 24 24 24 25 25 26 26 27 27 28 28
25 25 25 25 25 25 26 26 25 26 26 25 26 26 25 25 26 26 26 27 26 26 26 26 25 25 25 25 24 24 24 24 25 25 25 26 27 27 27 28 28 28 29
26 26 25 26 26 26 27 27 27 27 27 27 27 26 25 25 26 26 27 27 26 26 27 26 26 26 25 24 24 25 25 25 26 26 26 27 27 28 29 29 29 29 30
26 26 26 26 26 27 28 28 29 28 28 28 27 26 26 26 26 26 27 27 27 27 27 27 26 26 26 25 25 26 26 27 27 27 28 28 28 29 29 30 30 31 31
26 25 26 26 27 27 27 28 29 28 28 28 28 27 26 26 26 26 26 27 27 27 27 27 27 26 26 26 26 27 27 28 28 29 29 29 29 29 29 29 30 30 31
27 27 27 27 27 27 27 28 28 28 27 27 27 27 27 26 26 27 27 27 26 27 27 27 26 26 26 27 27 27 28 28 28 29 29 29 29 30 30 30 30 30 31
28 28 28 27 27 27 28 28 28 27 27 27 27 27 28 27 28 27 27 27 26 26 26 26 26 26 26 27 28 28 28 29 29 30 30 30 30 30 30 30 31 31 32
28 28 28 27 27 28 28 28 29 29 29 29 28 28 28 28 28 28 27 27 27 26 25 25 25 26 27 28 29 29 30 30 30 30 30 31 31 31 31 31 32 33 33
28 29 29 29 29 29 29 29 29 29 29 30 30 29 28 28 28 28 28 28 27 27 26 25 25 26 27 29 30 30 30 31 31 30 30 30 31 32 32 33 33 33 33
28 28 28 27 28 29 30 30 30 30 29 29 28 29 29 28 28 28 28 28 28 28 26 26 26 27 28 29 30 29 30 30 31 31 31 31 32 32 33 33 33 34 33
28 28 28 28 27 28 29 29 29 29 28 29 29 28 28 28 28 28 28 28 28 28 27 27 27 28 29 30 30 30 30 31 31 30 31 31 32 32 33 33 33 32 32
28 28 28 28 27 27 27 27 28 28 28 28 28 28 28 27 27 28 28 28 29 28 28 28 29 29 29 30 31 31 31 31 31 31 31 31 31 32 32 32 32 31 31
29 29 28 29 29 28 28 28 28 29 29 29 29 29 28 28 28 27 27 28 28 28 28 29 29 30 30 30 31 31 32 32 31 31 31 31 32 32 31 31 31 31 31
29 28 28 29 29 29 28 28 28 29 30 30 29 29 29 28 28 27 27 28 29 29 29 30 30 30 30 31 31 32 32 32 31 31 31 32 32 32 31 31 31 31 31
28 28 29 29 29 29 29 29 29 29 29 29 30 30 29 28 28 28 28 29 30 30 30 30 31 31 31 31 32 32 33 33 33 33 32 32 32 32 32 31 31 31 31
28 28 29 29 28 28 29 29 29 29 29 29 29 28 28 28 29 29 30 30 30 30 31 30 31 32 32 32 32 33 33 34 34 33 32 32 32 31 31 32 32 32 31
28 28 28 28 28 27 28 28 28 29 29 28 28 27 27 28 29 31 31 30 30 30 30 30 31 32 33 33 33 33 34 33 33 33 33 32 32 32 32 32 31 32 32
27 27 26 26 27 26 26 26 26 26 27 27 27 27 27 29 30 30 30 29 29 30 31 31 31 32 32 32 33 33 33 33 33 33 33 32 31 32 31 31 31 31 31
27 26 26 26 26 26 27 27 27 26 26 27 27 28 28 29 30 30 30 30 30 30 31 31 32 33 33 33 33 33 33 33 33 34 34 33 32 32 31 31 31 31 31
26 26 26 26 26 26 27 27 27 27 27 28 28 28 28 29 30 30 30 31 31 31 31 31 32 33 32 33 33 32 32 33 34 34 34 34 33 32 32 32 32 32 31
26 26 26 26 26 26 26 26 27 28 28 29 29 30 30 30 30 30 30 31 31 31 31 31 32 32 32 32 32 33 33 33 33 34 34 34 33 33 33 33 32 32 31
Wind_Direction
301 301 298 295 293 292 291 290 289 288 290 292 293 294 294 294 293 292 291 292 294 295 296 296 295 295 295 296 296 296 295 292 289 286 283 282 277 277 277 276 274 272 271
293 295 295 294 293 291 290 290 288 287 288 290 290 291 292 292 292 291 291 292 293 294 295 296 295 294 295 294 294 294 294 292 290 286 283 281 279 276 275 276 274 272 274
290 292 293 292 291 290 289 289 286 285 287 287 288 289 289 290 290 291 290 290 291 292 293 294 294 293 294 293 292 292 292 292 289 287 284 281 279 276 274 275 275 273 273
287 289 290 291 290 289 287 286 285 285 286 287 287 287 288 289 288 289 290 289 289 291 291 292 292 292 293 293 291 291 291 291 289 286 284 282 280 278 275 275 274 274 273
284 286 288 288 287 285 284 283 283 284 285 286 287 288 288 288 287 286 288 288 288 289 291 291 292 291 292 292 291 292 293 292 291 288 286 283 280 279 277 276 276 276 275
286 287 288 287 286 284 284 284 283 283 284 286 287 288 289 288 288 288 287 287 287 288 289 290 292 292 292 293 292 292 292 291 290 290 287 286 282 280 278 277 277 277 276
285 286 287 285 284 284 285 286 286 287 284 284 285 286 288 288 289 289 289 287 287 288 289 290 290 290 291 292 293 292 292 291 290 289 288 288 285 283 281 279 278 278 278
284 284 284 284 284 285 285 285 285 286 285 285 285 286 287 288 289 288 288 288 287 288 288 290 290 289 290 291 292 293 292 292 292 290 290 289 288 287 284 281 279 277 277
285 284 283 284 284 284 285 285 285 285 287 286 286 286 286 288 288 289 289 290 290 289 288 287 289 289 289 291 292 292 292 292 292 291 290 290 288 287 285 282 280 279 279
284 285 285 284 284 284 284 285 286 286 288 287 288 287 287 288 289 290 292 292 291 290 289 287 287 289 289 289 290 291 292 292 291 290 289 289 288 287 286 284 281 280 279
284 285 286 286 285 284 284 285 287 286 285 286 289 290 289 289 290 290 292 292 292 291 289 287 288 288 289 289 289 290 291 291 291 290 289 288 288 288 287 286 284 282 281
283 285 286 286 286 285 286 288 289 289 288 288 289 290 290 290 291 292 292 292 291 293 291 289 289 289 289 290 290 291 290 291 291 291 290 289 289 287 286 285 284 283 282
281 283 285 286 287 287 287 288 289 289 289 290 290 290 289 290 292 293 291 290 290 291 292 292 291 290 289 291 292 291 291 291 291 291 290 289 288 287 286 285 284 284 283
284 285 285 285 286 286 287 287 287 288 290 289 290 290 288 289 289 290 291 291 289 289 289 290 290 290 290 292 292 293 293 292 291 290 289 288 288 287 286 285 285 285 285
285 286 285 285 285 286 286 286 287 288 288 291 291 290 289 289 290 291 292 291 290 289 288 290 290 291 292 293 293 294 295 295 293 291 289 289 289 287 286 286 285 285 285
287 288 287 286 285 286 286 286 286 287 288 289 290 290 290 289 289 291 293 291 290 289 288 288 292 293 292 292 293 294 295 296 295 293 292 291 290 289 288 287 286 285 284
286 288 288 288 288 290 289 289 288 288 288 289 289 289 290 289 290 291 291 291 290 288 289 290 292 293 293 293 294 295 295 296 296 295 294 292 291 291 290 288 285 284 283
284 286 288 289 290 291 290 289 288 287 287 287 288 289 289 291 292 292 291 292 290 288 289 290 292 293 294 295 296 295 296 297 297 296 295 293 292 292 290 288 287 285 284
285 285 286 288 289 289 289 289 288 287 285 285 286 288 291 293 292 292 292 292 293 291 290 291 292 294 295 295 295 296 297 297 297 297 296 294 293 292 290 288 287 285 285
284 286 288 290 290 289 289 288 289 288 287 287 287 289 290 291 291 291 291 292 294 294 292 292 292 293 293 293 293 294 296 297 297 296 295 294 293 292 290 288 286 285 285
286 289 290 290 290 290 289 289 289 289 289 290 291 292 292 291 293 294 294 294 295 294 292 290 291 293 292 293 293 294 295 295 296 295 294 294 294 292 290 288 287 285 285
289 289 290 290 290 292 291 291 290 289 290 291 291 292 293 293 294 294 294 294 295 296 295 293 294 295 294 293 293 293 293 294 293 294 295 294 293 292 292 290 288 286 285
289 290 290 291 292 291 290 290 289 290 291 292 294 294 293 294 295 295 294 295 295 296 298 296 298 299 298 296 295 294 293 293 293 293 293 295 296 295 293 290 288 288 287
288 288 288 289 289 289 289 291 292 292 293 292 293 294 295 296 297 295 295 296 296 298 298 297 298 298 298 297 297 296 295 294 294 294 293 294 294 294 292 290 289 288 287
286 287 287 289 290 289 289 290 291 292 292 293 294 295 295 295 295 295 296 296 297 298 298 298 299 299 299 298 297 295 295 295 294 295 295 295 294 293 291 290 289 287 285
285 286 286 287 289 290 290 290 290 290 291 292 293 294 295 295 295 295 296 296 297 297 297 298 298 298 298 298 297 297 296 295 295 295 296 295 294 293 291 290 288 287 284
Height
5886 5885 5884 5882 5881 5880 5879 5877 5876 5875 5874 5872 5871 5869 5868 5867 5865 5864 5862 5861 5859 5857 5855 5853 5852 5850 5848 5846 5844 5841 5839 5837 5835 5834 5832 5831 5830 5829 5828 5828 5828 5828 5828
5883 5882 5880 5879 5878 5876 5875 5874 5872 5871 5869 5868 5867 5865 5864 5862 5861 5859 5858 5856 5854 5852 5850 5848 5846 5844 5842 5840 5838 5836 5833 5831 5829 5828 5826 5825 5824 5823 5823 5822 5822 5822 5821
5879 5878 5877 5875 5874 5872 5871 5869 5868 5866 5865 5863 5862 5860 5859 5857 5856 5854 5852 5851 5849 5847 5844 5842 5840 5838 5836 5834 5831 5829 5827 5825 5823 5822 5820 5819 5818 5817 5817 5816 5815 5815 5815
5875 5874 5873 5871 5869 5867 5866 5865 5863 5862 5860 5858 5857 5855 5853 5851 5850 5848 5846 5844 5842 5840 5838 5836 5833 5831 5829 5827 5825 5822 5820 5819 5817 5815 5814 5813 5812 5810 5810 5809 5809 5808 5808
5870 5869 5867 5866 5864 5862 5860 5859 5857 5856 5854 5852 5851 5849 5847 5845 5843 5842 5840 5838 5836 5834 5832 5830 5827 5825 5823 5820 5818 5816 5814 5812 5810 5808 5807 5806 5805 5804 5803 5802 5801 5801 5800
5865 5864 5862 5860 5858 5856 5854 5853 5851 5850 5848 5846 5844 5842 5840 5839 5837 5835 5833 5831 5829 5827 5825 5823 5820 5818 5816 5814 5811 5809 5807 5805 5803 5802 5800 5799 5798 5797 5795 5794 5793 5793 5793
5860 5858 5855 5854 5852 5850 5848 5846 5845 5843 5841 5839 5837 5835 5833 5832 5830 5828 5826 5824 5822 5820 5817 5815 5813 5811 5809 5807 5805 5803 5801 5799 5797 5795 5793 5792 5790 5789 5788 5787 5786 5785 5784
5853 5851 5849 5847 5845 5843 5841 5840 5838 5836 5834 5832 5830 5828 5826 5824 5823 5821 5819 5816 5814 5812 5810 5808 5806 5804 5801 5799 5797 5796 5794 5792 5790 5788 5786 5785 5783 5781 5780 5778 5777 5777 5776
5847 5845 5843 5841 5839 5837 5834 5833 5831 5829 5827 5825 5823 5821 5819 5817 5815 5813 5811 5808 5806 5804 5802 5800 5798 5796 5795 5792 5790 5788 5786 5784 5782 5780 5778 5776 5774 5773 5771 5769 5768 5767 5767
5840 5838 5836 5834 5832 5830 5828 5826 5823 5821 5819 5818 5816 5814 5812 5810 5807 5805 5803 5800 5798 5796 5794 5792 5790 5789 5787 5785 5783 5781 5779 5777 5775 5773 5770 5768 5766 5764 5762 5761 5759 5758 5757
5833 5832 5830 5827 5825 5823 5821 5819 5816 5814 5812 5810 5809 5806 5804 5802 5800 5798 5795 5793 5790 5788 5786 5784 5782 5780 5779 5777 5775 5773 5771 5768 5766 5764 5762 5760 5758 5756 5754 5752 5750 5749 5748
5826 5825 5823 5820 5818 5816 5814 5812 5810 5807 5805 5803 5801 5799 5796 5794 5792 5790 5787 5785 5783 5781 5778 5776 5774 5773 5771 5769 5767 5765 5762 5760 5758 5755 5753 5751 5749 5747 5745 5743 5741 5740 5738
5819 5817 5815 5813 5811 5809 5807 5805 5803 5801 5798 5796 5793 5791 5789 5786 5784 5782 5780 5778 5776 5773 5771 5769 5767 5765 5763 5761 5759 5756 5754 5751 5749 5746 5744 5742 5739 5737 5735 5733 5731 5729 5728
5811 5809 5807 5806 5803 5801 5799 5797 5795 5793 5791 5788 5786 5783 5781 5779 5776 5774 5772 5770 5768 5766 5763 5761 5759 5757 5755 5753 5750 5748 5745 5742 5739 5737 5734 5732 5730 5727 5725 5723 5721 5719 5717
5803 5801 5799 5797 5796 5793 5791 5789 5787 5785 5783 5781 5778 5776 5773 5771 5769 5766 5764 5762 5760 5758 5756 5753 5751 5749 5746 5744 5741 5739 5736 5733 5730 5727 5725 5722 5720 5717 5715 5712 5710 5708 5706
5796 5794 5791 5789 5787 5785 5783 5781 5779 5777 5775 5772 5770 5768 5765 5763 5761 5758 5756 5754 5752 5749 5747 5745 5743 5741 5738 5736 5733 5730 5727 5724 5721 5718 5715 5712 5710 5707 5704 5702 5700 5698 5696
5788 5786 5784 5781 5779 5777 5774 5772 5770 5768 5766 5764 5762 5759 5758 5755 5753 5751 5749 5746 5744 5741 5739 5737 5735 5733 5730 5727 5724 5721 5718 5715 5712 5708 5705 5702 5700 5697 5694 5691 5689 5687 5685
5780 5778 5776 5773 5771 5769 5767 5764 5762 5760 5758 5756 5754 5751 5749 5747 5745 5742 5740 5738 5735 5733 5731 5729 5727 5724 5721 5718 5715 5712 5709 5706 5702 5699 5695 5692 5690 5687 5684 5681 5679 5677 5675
5771 5769 5767 5765 5763 5761 5758 5756 5754 5752 5749 5747 5745 5743 5741 5738 5736 5734 5732 5730 5727 5724 5722 5720 5717 5715 5712 5709 5706 5703 5700 5697 5693 5689 5686 5683 5680 5677 5674 5671 5669 5667 5665
5762 5761 5758 5756 5754 5752 5750 5747 5745 5743 5741 5739 5737 5735 5732 5730 5728 5726 5723 5721 5718 5715 5713 5711 5708 5705 5702 5700 5697 5694 5690 5687 5684 5680 5676 5673 5670 5667 5664 5661 5659 5657 5655
5754 5752 5750 5748 5746 5743 5741 5739 5737 5735 5733 5730 5728 5726 5723 5721 5719 5717 5714 5712 5709 5706 5704 5702 5699 5696 5693 5690 5687 5684 5681 5677 5674 5670 5667 5663 5660 5657 5654 5651 5649 5646 5644
5746 5744 5742 5739 5737 5735 5732 5730 5728 5726 5724 5721 5719 5717 5714 5712 5710 5708 5706 5703 5700 5697 5695 5692 5689 5686 5683 5680 5677 5674 5670 5667 5663 5660 5656 5653 5650 5647 5643 5640 5638 5635 5633
5737 5735 5733 5731 5729 5726 5724 5722 5720 5717 5715 5713 5710 5708 5706 5703 5701 5699 5697 5694 5691 5689 5686 5683 5680 5676 5673 5670 5666 5663 5660 5657 5653 5649 5646 5643 5640 5636 5633 5630 5627 5625 5622
5729 5727 5725 5723 5721 5719 5716 5714 5711 5709 5707 5704 5702 5700 5697 5695 5692 5690 5687 5685 5682 5679 5677 5673 5670 5667 5664 5660 5657 5653 5650 5646 5643 5639 5636 5633 5629 5626 5623 5620 5617 5615 5612
5720 5719 5717 5715 5713 5710 5708 5706 5703 5701 5699 5696 5694 5692 5689 5687 5684 5681 5678 5676 5673 5670 5667 5664 5660 5657 5654 5650 5646 5643 5640 5636 5633 5629 5625 5622 5619 5616 5612 5609 5606 5604 5602
5713 5711 5709 5707 5705 5702 5700 5698 5695 5693 5690 5688 5685 5683 5680 5678 5675 5672 5669 5666 5663 5660 5657 5654 5651 5647 5644 5640 5636 5633 5629 5626 5622 5619 5615 5611 5608 5605 5601 5598 5595 5593 5590